Location: *
(28.3744°N, 81.5492°W)
Time: 14:46:42
(UTC+00:00)

Cosmos 1455 Rocket - Pass Details

Date: 15 June 2025
Orbit: 598 x 624 km, 82.5° (Epoch: 15 July)

Event Time Altitude Azimuth Distance (km) Brightness Sun altitude
Rises 07:48:16 0° 352° (N) 2,863 7.1 -28.1°
Reaches altitude 10° 07:50:29 10° 351° (N) 1,953 6.1 -27.8°
Enters shadow 07:53:14 38° 344° (NNW) 919 4.1 -27.4°
